| time (UTC) | temp F | wind direction | speed MPH | gust MPH | rain 1hr in | rain 24hr in | rain mn in | humidity % | barometer mb |
| 20260506001617 | 50 | 201 | 0.0 | 1.0 | 0.22 | 0.68 | 0.65 | 94 | 1009.4 |
| 20260506000055 | 50 | 210 | 0.0 | 1.0 | 0.21 | 0.64 | 0.61 | 94 | 1009.5 |
| 20260505234556 | 50 | 209 | 0.0 | 1.0 | 0.20 | 0.57 | 0.55 | 94 | 1009.8 |
| 20260505233057 | 50 | 209 | 0.0 | 0.0 | 0.19 | 0.51 | 0.48 | 94 | 1009.4 |
| 20260505231556 | 50 | 211 | 0.0 | 1.0 | 0.18 | 0.46 | 0.43 | 94 | 1009.4 |
| 20260505224550 | 51 | 209 | 0.0 | 2.0 | 0.17 | 0.38 | 0.35 | 93 | 1009.2 |
| 20260505223056 | 51 | 197 | 0.0 | 3.0 | 0.15 | 0.31 | 0.28 | 93 | 1009.2 |
| 20260505221551 | 51 | 226 | 0.0 | 5.0 | 0.15 | 0.28 | 0.25 | 93 | 1009.0 |
| 20260505220047 | 51 | 285 | 0.0 | 3.0 | 0.16 | 0.25 | 0.22 | 93 | 1009.1 |
| 20260505214557 | 52 | 359 | 1.0 | 4.0 | 0.14 | 0.21 | 0.18 | 92 | 1009.2 |
| 20260505213053 | 52 | 337 | 1.0 | 4.0 | 0.10 | 0.15 | 0.12 | 92 | 1008.9 |
| 20260505211538 | 53 | 251 | 2.0 | 6.0 | 0.09 | 0.13 | 0.10 | 91 | 1008.8 |
| 20260505210033 | 54 | 359 | 3.0 | 5.0 | 0.06 | 0.09 | 0.06 | 90 | 1008.7 |
| 20260505204533 | 55 | 256 | 2.0 | 7.0 | 0.04 | 0.07 | 0.04 | 89 | 1008.6 |
| 20260505203027 | 56 | 247 | 3.0 | 8.0 | 0.02 | 0.05 | 0.02 | 87 | 1008.5 |
| 20260505201540 | 57 | 243 | 2.0 | 6.0 | 0.01 | 0.04 | 0.01 | 85 | 1008.3 |
| 20260505200019 | 58 | 359 | 3.0 | 8.0 | 0.00 | 0.03 | 0.00 | 82 | 1008.0 |
| 20260505194518 | 58 | 249 | 1.0 | 8.0 | 0.00 | 0.03 | 0.00 | 81 | 1007.9 |
| 20260505193037 | 58 | 258 | 3.0 | 8.0 | 0.00 | 0.03 | 0.00 | 81 | 1008.1 |
| 20260505191517 | 58 | 245 | 2.0 | 5.0 | 0.00 | 0.03 | 0.00 | 81 | 1008.1 |
| 20260505190028 | 59 | 260 | 1.0 | 6.0 | 0.00 | 0.03 | 0.00 | 81 | 1008.0 |
| 20260505184519 | 58 | 359 | 2.0 | 12.0 | 0.00 | 0.03 | 0.00 | 81 | 1008.0 |
| 20260505183017 | 59 | 359 | 2.0 | 9.0 | 0.00 | 0.03 | 0.00 | 80 | 1008.3 |
| 20260505181515 | 59 | 251 | 5.0 | 10.0 | 0.00 | 0.03 | 0.00 | 78 | 1008.0 |
| 20260505180006 | 60 | 257 | 5.0 | 11.0 | 0.00 | 0.03 | 0.00 | 77 | 1007.8 |
| 20260505174504 | 61 | 276 | 3.0 | 10.0 | 0.00 | 0.03 | 0.00 | 74 | 1007.4 |
| 20260505173002 | 63 | 253 | 6.0 | 13.0 | 0.00 | 0.03 | 0.00 | 71 | 1007.1 |
| 20260505171501 | 63 | 237 | 5.0 | 12.0 | 0.00 | 0.03 | 0.00 | 73 | 1006.9 |
| 20260505170109 | 61 | 253 | 4.0 | 9.0 | 0.00 | 0.03 | 0.00 | 74 | 1006.9 |
| 20260505164558 | 62 | 251 | 4.0 | 9.0 | 0.00 | 0.03 | 0.00 | 70 | 1006.9 |
| 20260505163107 | 64 | 285 | 5.0 | 12.0 | 0.00 | 0.03 | 0.00 | 66 | 1006.8 |
| 20260505161557 | 66 | 252 | 2.0 | 5.0 | 0.00 | 0.03 | 0.00 | 67 | 1006.1 |
| 20260505153107 | 65 | 228 | 2.0 | 14.0 | 0.00 | 0.03 | 0.00 | 67 | 1006.8 |
| 20260505151552 | 66 | 232 | 5.0 | 11.0 | 0.00 | 0.03 | 0.00 | 66 | 1006.3 |
| 20260505150110 | 66 | 231 | 4.0 | 12.0 | 0.00 | 0.03 | 0.00 | 65 | 1006.3 |
| 20260505124537 | 66 | 202 | 3.0 | 12.0 | 0.00 | 0.03 | 0.00 | 66 | 1004.7 |
| 20260505123059 | 65 | 223 | 3.0 | 9.0 | 0.00 | 0.03 | 0.00 | 66 | 1004.6 |
| 20260505121535 | 65 | 179 | 3.0 | 12.0 | 0.00 | 0.03 | 0.00 | 66 | 1004.5 |
| 20260505120043 | 65 | 248 | 6.0 | 13.0 | 0.00 | 0.03 | 0.00 | 66 | 1004.4 |
| 20260505114541 | 65 | 230 | 4.0 | 12.0 | 0.00 | 0.03 | 0.00 | 67 | 1004.3 |
| 20260505113028 | 65 | 238 | 7.0 | 15.0 | 0.00 | 0.03 | 0.00 | 67 | 1004.1 |
| 20260505111525 | 64 | 220 | 4.0 | 15.0 | 0.00 | 0.03 | 0.00 | 67 | 1003.9 |
| 20260505101519 | 64 | 184 | 2.0 | 14.0 | 0.00 | 0.03 | 0.00 | 66 | 1003.0 |
| 20260505100021 | 64 | 249 | 5.0 | 14.0 | 0.00 | 0.03 | 0.00 | 66 | 1003.0 |
| 20260505094516 | 64 | 199 | 5.0 | 16.0 | 0.00 | 0.03 | 0.00 | 66 | 1002.9 |
| 20260505093016 | 64 | 182 | 5.0 | 16.0 | 0.00 | 0.03 | 0.00 | 67 | 1002.8 |
| 20260505091522 | 64 | 173 | 4.0 | 12.0 | 0.00 | 0.03 | 0.00 | 67 | 1002.7 |
| 20260505090021 | 64 | 266 | 3.0 | 15.0 | 0.00 | 0.03 | 0.00 | 67 | 1003.0 |
| 20260505084519 | 64 | 195 | 2.0 | 11.0 | 0.00 | 0.03 | 0.00 | 67 | 1002.9 |
| 20260505083014 | 64 | 250 | 5.0 | 10.0 | 0.00 | 0.03 | 0.00 | 67 | 1002.4 |
| 20260505081513 | 65 | 185 | 3.0 | 15.0 | 0.00 | 0.03 | 0.00 | 66 | 1002.4 |
| 20260505080011 | 65 | 244 | 3.0 | 14.0 | 0.00 | 0.03 | 0.00 | 66 | 1002.5 |
| 20260505074511 | 65 | 144 | 3.0 | 10.0 | 0.00 | 0.03 | 0.00 | 66 | 1002.5 |
| 20260505073015 | 65 | 194 | 4.0 | 12.0 | 0.00 | 0.03 | 0.00 | 66 | 1002.7 |
| 20260505071512 | 65 | 359 | 3.0 | 14.0 | 0.00 | 0.03 | 0.00 | 66 | 1002.5 |
| 20260505070016 | 65 | 201 | 4.0 | 9.0 | 0.00 | 0.03 | 0.00 | 66 | 1002.5 |
| 20260505064508 | 65 | 199 | 5.0 | 9.0 | 0.00 | 0.03 | 0.00 | 66 | 1002.9 |
| 20260505063007 | 65 | 359 | 4.0 | 12.0 | 0.00 | 0.03 | 0.00 | 65 | 1003.3 |
| 20260505061510 | 66 | 197 | 4.0 | 13.0 | 0.00 | 0.03 | 0.00 | 64 | 1003.2 |
| 20260505060009 | 65 | 243 | 5.0 | 14.0 | 0.00 | 0.03 | 0.00 | 65 | 1003.4 |
| 20260505054502 | 65 | 289 | 6.0 | 13.0 | 0.00 | 0.03 | 0.00 | 66 | 1003.5 |
| 20260505053107 | 64 | 248 | 5.0 | 14.0 | 0.00 | 0.03 | 0.00 | 67 | 1003.6 |
| 20260505051557 | 63 | 237 | 4.0 | 14.0 | 0.00 | 0.03 | 0.00 | 71 | 1003.8 |
| 20260505050125 | 61 | 243 | 3.0 | 9.0 | 0.00 | 0.03 | 0.00 | 75 | 1003.9 |
| 20260505041602 | 61 | 359 | 1.0 | 3.0 | 0.00 | 0.03 | 0.00 | 74 | 1004.7 |
| 20260505040055 | 62 | 359 | 1.0 | 5.0 | 0.00 | 0.03 | 0.00 | 70 | 1005.1 |
| 20260505034543 | 66 | 268 | 4.0 | 9.0 | 0.00 | 0.03 | 0.03 | 62 | 1005.2 |
| 20260505033046 | 65 | 359 | 2.0 | 10.0 | 0.00 | 0.03 | 0.03 | 64 | 1004.5 |
| 20260505031546 | 65 | 232 | 7.0 | 13.0 | 0.00 | 0.03 | 0.03 | 64 | 1004.2 |
| 20260505030043 | 65 | 166 | 5.0 | 15.0 | 0.00 | 0.03 | 0.03 | 65 | 1004.2 |
| 20260505024541 | 64 | 195 | 4.0 | 17.0 | 0.00 | 0.03 | 0.03 | 67 | 1004.2 |
| 20260505023045 | 63 | 201 | 3.0 | 11.0 | 0.00 | 0.03 | 0.03 | 70 | 1004.2 |
| 20260505021542 | 62 | 359 | 2.0 | 14.0 | 0.00 | 0.03 | 0.03 | 74 | 1004.2 |
| 20260505020040 | 61 | 359 | 3.0 | 10.0 | 0.00 | 0.03 | 0.03 | 78 | 1004.2 |
| 20260505014600 | 60 | 199 | 1.0 | 6.0 | 0.00 | 0.03 | 0.03 | 81 | 1004.1 |
| 20260505013042 | 60 | 199 | 1.0 | 4.0 | 0.00 | 0.03 | 0.03 | 82 | 1004.1 |
| 20260505011538 | 61 | 146 | 1.0 | 4.0 | 0.02 | 0.03 | 0.03 | 83 | 1003.9 |
| 20260505010038 | 62 | 359 | 1.0 | 3.0 | 0.03 | 0.03 | 0.03 | 82 | 1004.0 |
| 20260505004540 | 63 | 359 | 0.0 | 6.0 | 0.03 | 0.03 | 0.03 | 79 | 1004.2 |
| 20260505003034 | 65 | 359 | 0.0 | 4.0 | 0.03 | 0.03 | 0.03 | 73 | 1004.1 |